{"data":{"norad_id":53923,"epoch":"2026-05-24T20:11:47.848992Z","epoch_age_seconds":92314,"freshness":"FRESH","line1":"1 53923U 22119AP  26144.84152603  .00000976  00000+0  79424-4 0  9994","line2":"2 53923  53.2145 332.0879 0001308  95.7104 264.4038 15.08840812203328","mean_motion":15.08840812,"eccentricity":0.0001308,"inclination_deg":53.2145,"raan_deg":332.0879,"arg_perigee_deg":95.7104,"mean_anomaly_deg":264.4038,"bstar":7.9424e-5,"rev_number":20332,"period_min":95.43750331695,"perigee_km":538.83604857583,"apogee_km":540.6457654363,"semimajor_km":6917.8779070061,"source":"CELESTRAK","updated_at":"2026-05-25T13:38:17.613707Z"}}